This is the latest recevied weather packets stored in our database for station/object DG1ROH. If no packets are shown the sender has not sent any weather packets the latest 1 day(s).
| Time | Temp. | Humidity | Pressure | Rain* | Wind** | Luminosity | Snow |
|---|---|---|---|---|---|---|---|
| 1777979793 | 15.56° C | 89% | 1008.8 hPa | 0 mm | 0.89 m/s, 34° | 461 W/m² | - |
| 1777979673 | 15° C | 90% | 1008.9 hPa | 0 mm | 0.45 m/s, 59° | 376 W/m² | - |
| 1777979553 | 15° C | 88% | 1008.9 hPa | 0 mm | 0.45 m/s, 57° | 322 W/m² | - |
| 1777979432 | 15° C | 89% | 1008.9 hPa | 0 mm | 0.45 m/s, 56° | 267 W/m² | - |
| 1777979313 | 15° C | 89% | 1008.9 hPa | 0 mm | 0.45 m/s, 26° | 241 W/m² | - |
| 1777979192 | 15° C | 88% | 1009 hPa | 0 mm | 0.45 m/s, 351° | 221 W/m² | - |
| 1777979073 | 15° C | 88% | 1009 hPa | 0 mm | 0.45 m/s, 355° | 200 W/m² | - |
| 1777978953 | 15° C | 88% | 1008.9 hPa | 0 mm | 0.45 m/s, 44° | 181 W/m² | - |
| 1777978833 | 15° C | 89% | 1009 hPa | 0 mm | 0.45 m/s, 44° | 176 W/m² | - |
| 1777978712 | 15° C | 88% | 1008.9 hPa | 0 mm | 0.45 m/s, 44° | 156 W/m² | - |
| 1777978592 | 15° C | 88% | 1009.1 hPa | 0 mm | 0.45 m/s, 44° | 144 W/m² | - |
| 1777978473 | 15° C | 88% | 1009 hPa | 0 mm | 0.45 m/s, 14° | 149 W/m² | - |
| 1777978349 | 15° C | 88% | 1009.1 hPa | 0 mm | 0.45 m/s, 14° | 142 W/m² | - |
| 1777978228 | 15° C | 88% | 1009.1 hPa | 0 mm | 0.45 m/s, 14° | 121 W/m² | - |
| 1777978108 | 15° C | 88% | 1009.2 hPa | 0 mm | 0.45 m/s, 24° | 111 W/m² | - |
| 1777977988 | 15° C | 88% | 1009.1 hPa | 0 mm | 0.45 m/s, 30° | 102 W/m² | - |
| 1777977878 | 15° C | 88% | 1009.2 hPa | 0 mm | 0.45 m/s, 71° | 102 W/m² | - |
| 1777977749 | 15° C | 88% | 1009.2 hPa | 0 mm | 0.45 m/s, 12° | 107 W/m² | - |
| 1777977629 | 15° C | 87% | 1009.2 hPa | 0 mm | 0.45 m/s, 15° | 134 W/m² | - |
| 1777977509 | 15° C | 87% | 1009.1 hPa | 0 mm | 0.45 m/s, 15° | 153 W/m² | - |
| 1777977389 | 15° C | 87% | 1009.1 hPa | 0 mm | 0.45 m/s, 15° | 163 W/m² | - |
| 1777977268 | 15° C | 87% | 1009.1 hPa | 0 mm | 0.45 m/s, 15° | 167 W/m² | - |
| 1777977149 | 15° C | 87% | 1009.2 hPa | 0 mm | 0.45 m/s, 14° | 167 W/m² | - |
| 1777977029 | 15° C | 87% | 1009.1 hPa | 0 mm | 0.45 m/s, 13° | 172 W/m² | - |
| 1777976907 | 15° C | 88% | 1009.1 hPa | 0 mm | 0.45 m/s, 11° | 176 W/m² | - |
* Rain latest hour (hover to see other rain measurements)
** Current wind speed in m/s (hover to see current wind gust speed)